Ravalli County (6S5)
Hamilton, MT
Field Elevation: 3642
Lat: 45°15.05N  Long: 114°07.31W
CTAF/Unicom Freq: 122.8000
   
     For Weather-by-Phone, call 406-375-9149
Weather Advisories
10/25/2014 23:28 Z
Altimeter 29.72" Hg
Wind 110° @ 0 KT
Gusts --
Visibility 10 SM
Temperature 11° C (52° F)
Dewpoint 6° C (43° F)
Relative Humidity 73%
Density Altitude --
Condensation Altitude 6,100 feet
  Wind and Runways
Indicated Runway = 16
History
 
 
More Info
All DigiWx sites map
NOAA Forecast
 
Airport IQ 5010
(S59) Libby
(79S) Fort Benton
 
about DigiWx
 
FAA Disclaimer: The data displayed is for advisory purposes only and is not to be used for flight planning or operations. For official data, please call 406-375-9149 to hear the current automated AWOS voice message.
  METAR 6S5 252328Z AUTO 11000KT 10SM 11/06 A2972